User: anonymous
Location: Niverville
(49.6028°N, 97.0419°W)
Time: 11:32:21
(UTC-05:00)
Language:

Cosmos 2237 Rocket - Orbit

View from above orbital plane
View from above orbital plane
View from above satellite
View from above satellite

Ground track
Ground track

The orbit data is extracted from the following two-line orbital elements,

1 22566U 93016B   14232.10419295  .00000290  00000-0  17452-3 0  1279
2 22566 071.0075 073.1782 0012315 265.9827 093.9888 14.14845560105281
Epoch (UTC): 20 August 2014 02:30:02
Eccentricity: 0.0012315
inclination: 71.0075°
perigee height: 834 km
apogee height: 852 km
right ascension of ascending node: 73.1782°
argument of perigee: 265.9827°
revolutions per day: 14.14845560
mean anomaly at epoch: 93.9888°
orbit number at epoch: 10528

The dashed part of the orbit path shows where the satellite is in the earth's shadow,  

DLR